Temp
22 21 21 22 23 23 24 25 26 26 26 26 25 25 24 24 24 27 27 27 28 28 27 27 26 26 25 24 24 24 24 24 23 24 24 25 26 25 25 24 23 22 22 21 21 20 20 20 19 18 18 18 18 18 18 19 19 19 19 19 19 19 19 18 17 17 17 17 18 18 18 18 18 18 18 18 17 17 17 17 17 17 17 17 17 17
22 21 22 23 24 25 24 25 25 25 26 26 25 24 24 24 25 27 27 26 28 27 25 26 25 24 24 24 23 24 23 23 22 23 23 24 25 25 25 23 22 21 20 20 20 19 19 19 18 18 19 19 19 18 18 18 19 18 18 18 18 17 17 17 18 17 17 17 18 18 18 18 18 19 19 19 18 17 17 18 17 17 17 17 17 17
21 21 23 24 24 25 25 25 25 24 25 25 25 24 23 25 25 25 26 26 27 26 25 25 25 23 24 23 23 23 23 22 22 22 22 23 24 24 23 21 20 20 19 19 19 19 18 18 18 18 18 18 19 19 18 18 18 18 18 18 17 17 18 18 18 18 18 18 18 18 18 18 18 18 18 18 18 17 17 17 17 18 17 17 17 17
20 22 24 25 24 24 24 24 24 24 25 25 25 24 23 25 25 23 24 26 26 26 25 26 25 23 24 23 23 23 23 23 23 22 22 22 22 22 21 20 20 19 19 18 18 18 18 18 18 18 18 18 19 19 19 19 18 18 18 18 18 17 18 18 17 17 18 18 17 17 18 17 18 18 17 17 17 17 17 17 17 17 17 17 17 17
21 23 24 24 23 24 23 23 24 23 23 24 25 24 24 25 25 24 25 25 25 26 26 26 23 22 23 24 23 23 23 23 23 23 22 21 21 21 20 19 18 18 18 17 17 17 17 17 17 17 18 18 18 18 18 18 18 18 18 17 17 17 17 17 17 17 17 17 17 17 17 17 17 18 17 17 17 17 17 17 17 17 17 17 17 17
23 24 24 23 23 23 23 23 23 23 23 23 25 26 26 26 26 26 25 25 23 22 25 25 22 21 22 23 23 24 23 23 23 22 21 20 20 20 18 18 17 17 17 16 16 17 17 16 16 16 17 17 17 17 17 17 17 17 17 17 17 17 17 17 16 16 16 16 17 17 17 17 17 18 18 17 17 17 17 18 17 17 17 17 17 17
23 24 23 23 23 23 23 23 24 24 23 22 24 26 27 27 26 25 25 24 22 21 25 26 22 21 21 22 23 24 23 22 21 20 19 18 18 17 17 16 16 16 16 15 15 16 16 16 15 15 16 16 16 16 17 17 17 17 17 17 17 17 17 16 16 16 16 16 16 17 17 17 18 18 19 18 18 17 17 17 17 17 17 17 17 17
23 23 22 23 23 23 23 23 24 25 23 22 25 26 25 26 26 25 25 24 23 23 24 25 24 22 21 21 22 23 22 21 20 18 17 17 16 16 16 15 15 15 15 15 14 14 15 14 14 14 14 14 14 15 15 16 16 17 17 17 17 17 17 17 16 16 16 16 16 16 17 17 18 18 18 18 18 18 17 17 17 17 17 18 18 17
23 22 22 23 23 22 23 24 25 25 24 24 25 25 25 26 26 26 25 24 24 24 21 23 24 22 20 21 22 23 22 21 19 18 17 16 15 15 15 15 14 14 14 14 14 14 14 14 14 13 13 13 13 13 14 15 15 16 16 17 17 17 17 17 17 16 16 16 16 16 17 17 17 17 18 18 18 18 17 17 17 17 17 17 18 18
22 23 23 23 23 23 24 25 25 24 24 24 24 24 25 25 25 26 25 24 23 22 21 22 23 22 21 21 22 23 22 20 19 17 16 16 15 14 14 14 14 14 14 14 14 14 13 13 13 13 13 13 13 13 13 14 14 15 15 16 17 17 17 17 17 17 17 16 17 17 17 17 17 17 17 18 18 18 17 17 17 17 16 16 17 17
23 23 24 24 24 24 25 25 25 24 25 24 24 24 23 24 25 25 24 24 22 21 21 22 23 22 21 21 22 22 22 21 19 17 16 15 14 14 13 13 13 14 14 14 14 14 13 13 13 13 13 13 13 13 13 13 14 14 15 15 16 16 16 17 17 17 17 17 17 17 17 17 17 17 17 18 18 18 18 18 17 17 16 16 17 18
22 22 23 24 24 25 25 24 24 25 25 24 24 23 22 22 23 22 22 22 21 20 22 23 23 23 21 21 22 21 21 20 19 17 15 15 14 13 13 13 13 13 14 13 13 13 13 13 13 13 13 13 13 13 13 13 14 15 15 14 15 15 15 16 16 16 17 17 17 17 17 17 17 17 17 18 18 18 18 17 18 17 16 16 17 18
21 22 23 23 24 24 24 23 22 23 24 24 24 22 21 20 20 21 21 21 21 21 22 23 23 22 21 22 22 21 19 18 17 16 15 14 14 13 13 13 13 13 13 13 12 12 12 12 12 12 13 13 13 13 13 13 14 14 14 14 14 14 14 15 15 15 15 16 16 16 17 17 17 17 17 18 18 18 18 18 18 18 17 17 17 17
21 22 23 23 23 24 24 22 21 22 22 23 23 22 21 20 20 20 20 20 21 21 21 23 22 21 20 21 21 19 18 17 16 15 14 14 13 13 13 13 13 13 13 12 12 12 12 12 12 12 12 12 12 13 13 13 13 13 14 14 14 14 14 14 14 14 14 14 15 16 16 16 17 17 17 17 17 18 18 18 17 17 18 18 17 16
20 20 22 22 22 23 24 24 23 23 23 23 24 23 21 21 21 20 20 21 21 21 21 21 21 21 20 19 17 17 17 17 16 15 14 13 13 13 13 13 13 12 12 12 12 12 12 12 11 11 11 12 12 12 12 12 12 12 13 13 13 14 14 14 14 14 14 14 14 15 15 16 16 17 17 17 17 17 17 17 17 17 17 17 17 17
20 20 22 23 23 24 23 24 25 24 22 23 25 24 22 22 23 21 20 21 21 21 20 20 20 20 19 17 16 16 17 17 16 15 14 14 14 13 13 13 12 12 12 12 11 12 12 12 12 12 12 12 12 12 12 12 12 12 12 12 13 13 13 13 13 13 14 13 13 14 14 15 16 16 17 17 16 16 16 16 17 17 17 17 17 17
20 21 23 23 23 24 24 24 25 24 23 23 23 22 23 25 25 21 20 20 21 21 20 20 20 18 17 17 16 17 17 16 16 15 14 14 14 13 12 12 12 11 11 12 11 12 12 12 12 12 12 12 11 11 11 11 12 12 12 12 13 13 13 13 13 13 13 13 13 13 14 14 15 15 16 16 16 16 16 16 16 17 17 17 17 17
21 21 23 23 22 24 25 25 25 25 25 23 22 23 24 25 24 22 21 20 21 21 20 20 20 18 18 18 17 17 17 16 16 15 14 13 13 13 12 11 11 11 11 11 12 12 12 12 12 11 11 11 11 11 11 11 12 12 12 12 12 13 13 13 13 13 13 13 13 13 13 13 14 14 15 15 16 16 16 16 16 16 16 17 17 17
22 21 22 23 23 23 24 24 23 24 25 24 24 25 24 22 21 22 21 20 20 20 20 20 20 19 20 19 17 18 17 16 16 15 14 13 13 12 12 11 11 11 11 11 11 12 12 12 12 11 11 11 11 12 12 12 12 12 12 12 12 12 13 13 13 13 13 13 13 13 13 13 13 14 14 15 15 16 16 16 16 16 16 16 16 16
22 21 21 23 24 23 23 23 22 22 23 24 25 25 24 22 22 22 21 21 21 20 20 20 20 20 21 20 19 18 17 17 17 15 13 13 12 12 12 12 12 11 11 11 11 12 12 12 11 11 11 11 12 12 12 12 13 13 12 12 12 12 12 13 13 13 13 13 13 13 13 13 13 14 14 14 15 15 16 16 16 16 16 16 16 16
22 21 20 22 23 22 22 22 23 22 22 22 22 23 23 23 23 23 22 22 21 21 20 20 20 20 20 20 20 18 17 17 16 14 13 12 11 11 11 11 11 11 10 10 10 11 11 11 10 10 11 12 12 12 12 12 13 13 12 12 13 12 12 12 12 12 13 13 12 13 13 13 13 14 14 14 14 15 16 16 16 15 16 16 15 15
22 21 21 21 21 21 22 22 23 23 24 23 22 22 23 22 22 22 21 21 22 21 21 20 20 19 17 18 19 17 17 17 16 14 13 12 11 10 10 10 10 10 10 10 10 11 11 10 10 11 11 12 12 13 13 12 12 12 12 12 13 13 12 12 12 12 12 12 12 12 12 13 13 14 14 14 15 15 15 15 15 15 15 15 15 15
22 22 21 21 21 21 21 21 21 22 23 24 24 24 24 23 22 21 20 21 21 21 21 21 21 18 15 15 16 15 15 15 15 14 12 11 11 10 10 10 10 10 10 10 10 11 11 11 11 11 12 12 12 12 12 12 12 12 11 11 12 12 12 12 11 11 11 11 11 12 12 12 13 13 13 14 14 15 15 15 15 15 15 15 15 15
21 22 21 20 21 21 21 21 21 21 22 23 23 24 25 24 23 23 22 22 21 21 21 21 20 17 13 13 13 13 13 13 13 13 12 11 10 10 10 10 10 10 10 10 10 10 10 11 11 11 12 12 12 12 12 12 12 12 11 11 12 12 12 11 11 10 10 11 11 11 11 11 12 12 12 13 14 14 15 15 15 15 15 15 15 15
21 21 21 20 19 20 20 20 21 21 22 22 22 22 22 24 24 24 23 23 21 21 21 21 20 16 12 12 12 11 11 11 11 12 11 10 10 9 9 9 9 10 10 10 10 10 11 11 11 11 11 11 12 12 11 11 12 12 12 12 12 12 12 11 10 10 10 10 10 11 11 11 11 11 11 12 12 13 14 15 15 15 15 15 15 15
20 19 20 20 19 19 19 19 20 21 21 21 21 20 21 22 23 23 22 21 21 21 21 21 19 14 11 11 11 10 10 10 10 10 10 10 10 9 9 8 9 9 9 10 10 10 11 10 10 10 10 11 11 11 11 11 11 12 12 11 12 12 11 10 10 10 10 10 10 10 10 10 10 11 11 11 11 12 13 14 15 15 15 15 15 15
19 17 17 18 19 19 19 18 19 20 21 21 20 20 20 20 21 22 22 21 21 21 21 21 18 13 11 11 11 10 10 9 9 10 9 9 9 9 9 8 9 9 9 9 10 10 11 11 10 10 11 11 11 11 11 11 11 11 11 11 11 11 11 10 10 10 10 10 10 10 10 10 10 10 10 11 11 12 13 14 14 15 15 15 15 15
19 17 16 16 17 17 18 18 18 20 20 20 19 20 19 19 20 22 21 21 22 21 20 19 17 14 12 12 11 10 10 9 9 9 9 9 9 9 9 8 9 9 9 10 10 10 11 11 11 11 10 10 10 10 11 11 11 11 11 12 11 11 11 11 11 11 10 10 10 10 10 10 10 10 10 11 11 12 12 13 14 15 15 15 15 15
19 16 15 16 16 16 17 18 18 18 18 18 18 18 19 19 20 20 19 20 21 21 20 18 17 14 12 11 10 10 9 8 8 8 9 9 9 9 9 9 9 9 9 9 9 10 11 12 11 10 10 10 10 10 11 11 11 11 11 11 11 11 11 11 11 11 10 10 10 10 10 10 10 10 11 11 11 11 11 12 12 13 14 14 14 14
19 16 16 16 16 16 17 17 17 17 17 17 17 17 18 18 19 19 19 19 20 19 18 17 15 13 11 10 9 8 8 8 8 8 8 9 9 9 9 9 9 9 8 9 9 10 11 12 11 11 10 10 10 10 10 10 10 10 10 11 11 11 11 11 11 11 10 10 10 10 10 10 10 10 10 11 11 11 11 11 11 11 12 13 14 14
18 16 16 17 16 15 16 16 16 17 16 16 15 16 17 17 17 17 17 17 17 16 15 13 11 10 9 8 8 8 8 8 8 7 8 8 8 8 8 8 8 8 8 9 9 10 11 12 11 11 11 10 10 10 10 10 10 10 10 10 10 10 11 11 11 12 11 10 10 10 10 10 10 10 10 10 10 10 10 10 10 10 11 11 12 12
18 16 16 18 16 15 16 17 16 16 16 15 13 13 15 15 14 14 15 16 16 14 13 13 11 9 8 8 8 8 8 8 7 7 7 7 8 8 8 8 8 8 8 8 9 9 11 12 11 10 10 10 10 10 9 9 10 10 10 10 10 10 11 11 12 12 11 11 10 10 10 10 10 10 10 10 10 10 10 10 9 9 9 10 10 10
18 16 16 18 17 14 16 17 16 17 18 16 13 11 12 14 13 13 14 15 15 15 15 15 12 9 8 8 8 7 7 7 7 7 7 7 8 8 8 8 8 8 8 8 9 9 10 11 10 9 9 9 9 9 9 9 9 9 10 10 10 10 11 11 11 11 11 11 10 10 10 10 10 10 10 10 10 10 9 9 8 8 8 8 8 9
18 17 18 19 17 15 16 16 16 18 18 15 11 11 13 14 14 12 12 13 13 14 14 13 10 8 8 8 8 7 7 7 6 7 7 7 7 7 7 7 7 8 8 8 8 9 9 9 9 9 9 9 9 9 10 9 10 10 10 10 10 10 10 11 11 11 11 10 10 10 9 9 9 10 9 9 9 9 9 8 8 7 7 7 7 8
18 19 19 20 18 16 16 17 17 17 15 11 11 13 14 14 13 11 11 11 12 11 10 10 9 8 8 7 7 7 6 6 6 6 6 7 7 7 7 6 7 7 7 7 8 8 8 8 8 8 8 9 9 9 9 9 10 10 10 10 10 10 10 11 11 10 10 10 10 9 9 9 9 9 9 9 9 9 9 8 8 7 6 7 7 7
19 19 19 19 18 17 16 17 17 14 11 10 12 13 13 13 13 12 10 10 10 11 10 9 8 7 7 7 6 6 6 6 6 6 6 6 6 7 6 6 6 7 7 7 8 8 8 8 8 8 8 8 8 9 9 9 10 10 10 10 11 11 11 11 11 10 10 10 9 9 9 8 8 9 9 9 8 8 8 8 7 6 6 6 6 6
20 20 19 18 17 17 16 15 13 11 11 11 11 12 13 13 14 14 11 9 10 11 10 8 7 7 7 7 6 6 6 6 6 5 6 6 6 7 7 7 7 7 7 8 8 8 8 8 8 8 8 8 8 8 8 9 9 10 10 10 10 10 10 11 11 10 10 10 9 9 8 8 8 8 8 8 8 8 8 7 7 6 6 6 5 5
20 20 20 18 17 17 17 14 12 13 14 13 12 12 13 13 14 15 12 9 9 10 9 8 7 7 7 7 6 6 7 7 6 5 6 6 7 7 7 7 7 7 8 8 8 8 8 8 8 8 8 8 8 8 8 9 9 9 10 10 10 9 9 9 10 10 10 9 9 8 8 8 8 8 8 8 7 7 7 7 6 6 6 6 5 5
19 20 20 19 17 17 18 17 16 16 15 14 13 13 13 13 14 15 14 11 9 9 9 8 8 7 7 7 7 7 9 9 6 5 6 6 7 7 7 7 7 7 8 7 7 8 8 8 9 9 9 9 8 8 8 9 9 9 9 9 9 9 9 9 9 9 9 9 9 8 8 8 8 7 8 7 7 7 6 6 5 5 6 6 5 5
19 19 20 19 17 17 18 18 16 14 12 13 13 13 14 14 13 15 16 13 9 8 9 9 8 8 8 7 7 8 10 9 6 5 6 6 6 7 7 7 7 8 8 8 7 8 8 9 9 9 9 9 9 9 9 9 9 9 9 9 8 9 9 9 9 9 9 9 8 8 8 8 7 7 7 7 7 7 6 6 5 5 6 6 5 5
17 18 18 18 18 18 18 17 15 12 11 12 13 13 14 13 13 15 15 12 9 9 10 9 9 8 8 8 8 7 8 9 7 6 7 7 7 7 7 7 7 8 8 8 8 8 9 9 9 9 9 9 9 9 9 9 9 9 8 8 8 8 8 9 9 9 8 8 8 7 7 7 7 7 7 7 8 8 7 7 6 5 5 5 5 5
16 16 17 18 17 18 17 17 15 13 11 12 13 13 13 13 14 13 12 11 10 10 10 9 9 8 8 8 7 6 6 7 6 6 7 7 7 7 8 8 8 8 8 8 8 8 9 9 9 9 9 9 9 9 9 9 9 9 9 8 8 8 8 8 9 8 8 8 8 7 7 6 6 6 6 7 7 8 8 7 7 6 5 5 5 5
15 16 17 16 15 17 17 16 15 14 12 12 13 13 13 13 13 12 11 11 11 10 9 9 8 8 7 7 7 7 7 7 7 7 7 8 8 8 8 8 8 8 8 8 8 8 9 9 9 9 9 9 9 9 9 9 9 9 9 9 9 8 8 8 8 8 8 8 8 7 7 6 6 5 5 6 7 7 7 7 7 7 6 5 5 5
13 14 16 15 13 15 17 15 12 11 11 12 12 13 12 12 12 12 12 11 10 9 9 9 8 8 8 7 7 7 7 7 7 7 7 8 8 8 8 8 8 8 8 8 8 9 9 9 9 9 9 9 9 9 9 9 9 9 9 9 9 9 9 8 8 8 8 8 8 7 7 6 5 5 5 6 6 7 7 7 7 7 6 6 5 5
12 12 14 13 10 11 13 11 9 9 10 11 12 12 12 12 12 13 12 11 10 10 10 9 8 8 8 7 7 7 7 7 8 8 8 8 8 8 8 8 8 8 9 9 9 9 9 9 9 9 9 9 9 9 9 9 9 9 9 9 9 9 9 9 8 8 8 8 8 8 7 7 6 6 5 6 6 6 7 7 6 6 6 6 5 5
11 12 12 11 9 9 9 8 8 9 9 10 11 12 12 12 12 12 12 11 11 10 10 9 8 8 8 8 8 8 8 8 8 8 8 9 9 9 9 9 9 9 9 9 9 9 9 9 9 9 9 9 9 9 9 9 9 9 9 9 9 9 9 9 9 8 8 8 8 8 8 7 7 7 6 6 6 6 6 6 6 5 5 6 6 5
11 12 12 11 11 11 9 7 7 8 8 9 10 10 11 11 11 11 11 10 10 9 9 9 9 9 9 9 9 8 8 8 8 9 9 10 10 10 10 9 9 9 9 9 9 9 9 10 9 9 9 9 9 9 9 9 9 9 9 9 9 9 9 9 9 8 8 8 8 8 8 7 7 7 7 6 6 6 6 6 5 5 4 4 4 5
12 13 13 11 11 10 8 6 7 8 8 9 9 9 10 10 10 10 10 10 10 10 9 9 9 10 10 10 9 9 9 9 10 9 10 10 10 10 10 10 9 9 9 9 9 9 9 9 9 9 9 9 9 9 9 9 9 9 9 9 9 9 9 9 9 9 9 8 8 8 8 7 7 7 7 7 6 5 5 5 5 5 4 3 3 3
13 13 12 11 8 7 7 6 7 7 7 8 9 9 9 10 9 10 10 10 10 10 9 10 10 10 10 10 11 10 10 10 10 10 10 10 10 10 10 9 9 9 9 8 9 9 9 9 9 9 9 9 8 9 9 9 9 9 9 9 9 9 9 9 9 9 9 9 8 8 8 8 7 7 7 7 6 5 5 4 5 5 4 3 3 3
13 13 12 10 8 8 8 7 8 9 8 7 8 9 9 10 10 10 10 10 10 10 10 10 10 10 10 10 10 10 10 10 10 10 10 10 10 9 9 9 9 9 9 9 9 9 9 9 9 8 9 8 8 8 8 9 9 9 9 9 9 9 9 9 9 9 9 9 8 8 8 8 8 8 7 7 7 6 5 5 4 4 4 3 3 3
13 13 12 12 11 11 10 9 10 11 9 7 8 9 10 10 11 10 10 10 10 10 11 10 9 10 10 10 10 10 10 10 10 10 10 10 9 9 9 9 9 9 9 9 9 9 8 9 8 9 9 9 8 8 8 8 9 9 9 9 9 9 9 9 9 9 9 9 8 8 8 8 8 8 8 7 7 7 6 6 5 5 4 4 4 4
Height
767 774 776 771 767 766 765 763 760 758 757 761 765 766 766 767 767 763 765 765 759 765 772 771 777 783 786 789 788 788 788 789 790 790 788 786 785 786 788 791 794 797 799 801 803 805 805 806 806 807 808 809 810 811 811 809 809 810 810 812 812 811 811 813 814 814 815 816 817 818 818 819 819 819 818 817 817 817 818 819 822 823 824 825 826 825
767 773 769 764 761 759 762 761 760 763 761 762 763 764 764 762 764 764 767 768 761 766 778 777 781 788 788 790 790 789 791 793 794 794 792 788 786 786 788 793 797 800 802 803 805 806 806 807 807 808 809 810 811 811 810 809 810 811 812 813 813 813 814 814 814 814 814 815 815 815 816 817 818 818 818 818 817 816 817 818 820 821 822 824 824 824
772 770 761 757 756 756 760 761 763 767 764 764 762 764 766 759 762 769 768 768 764 768 779 779 784 792 791 790 792 791 793 795 795 795 795 792 791 791 795 799 802 803 805 805 806 807 808 809 809 810 810 811 812 812 812 812 812 812 813 813 814 814 815 814 814 814 814 814 814 814 815 815 816 815 816 817 817 817 817 817 818 818 820 822 822 823
772 764 754 753 755 759 764 765 766 768 767 765 762 765 766 758 764 776 772 771 768 768 775 778 784 792 791 791 792 792 793 793 794 796 797 797 798 799 800 803 804 806 807 808 809 809 810 811 811 811 812 812 812 813 813 813 813 813 813 813 813 814 814 814 814 814 815 815 815 815 815 815 814 814 814 815 816 817 816 816 816 816 818 819 821 823
762 754 749 753 757 761 766 768 768 770 770 765 761 761 761 758 760 766 770 772 771 772 773 776 788 796 793 793 794 792 793 792 792 795 798 800 800 801 803 805 807 808 809 811 811 812 813 813 813 813 813 813 813 813 814 813 814 814 814 813 813 813 813 813 814 814 815 815 815 815 815 815 814 813 813 814 815 815 815 815 815 815 815 817 819 822
755 748 749 756 759 759 764 768 767 768 769 768 764 757 756 758 759 762 768 771 779 786 775 772 791 803 797 796 795 792 794 797 796 799 804 804 803 805 809 810 811 812 813 813 814 814 815 815 816 815 815 815 814 814 814 814 814 815 815 814 814 813 813 814 814 814 815 815 815 815 814 814 813 812 813 813 813 813 814 814 814 814 814 815 816 818
750 747 751 757 759 759 763 765 762 761 766 770 765 757 756 757 759 764 767 769 779 784 773 768 784 801 803 801 796 792 796 801 802 807 813 813 813 813 814 815 815 816 816 816 817 817 818 818 818 818 817 816 816 815 815 815 815 815 815 814 814 813 813 814 814 814 815 815 814 814 813 813 812 811 812 812 812 811 812 813 813 813 813 813 814 816
746 751 754 755 758 761 762 762 758 757 764 765 758 758 762 761 762 765 764 766 767 770 774 772 773 789 803 804 797 792 798 805 808 815 819 819 820 819 819 820 820 820 820 819 820 820 820 821 820 820 820 818 818 817 816 815 815 815 815 814 814 814 814 814 814 814 814 814 814 813 813 812 811 810 810 810 810 809 810 811 812 811 811 810 810 812
746 754 755 754 758 760 758 755 753 756 762 760 756 760 762 762 763 761 762 763 761 770 784 778 770 783 799 803 798 793 798 809 815 819 822 822 823 823 822 823 823 823 823 822 822 822 823 823 823 823 822 820 819 817 817 816 815 816 815 815 814 814 814 814 814 814 814 814 813 813 812 811 810 809 808 808 808 808 808 809 810 809 809 808 808 808
747 749 747 750 755 755 752 748 750 757 760 758 760 763 763 765 764 762 764 761 764 780 784 774 771 780 795 802 799 795 797 807 816 820 822 824 824 826 826 826 826 825 824 824 824 824 825 825 825 824 823 822 821 819 818 817 816 817 816 816 815 814 814 814 813 813 813 813 812 811 811 810 809 808 807 807 806 806 807 807 808 808 808 808 807 806
743 743 742 745 748 746 746 746 750 754 756 758 763 767 770 771 767 767 766 759 773 789 776 765 767 774 792 800 792 794 797 802 814 821 824 825 825 828 829 829 829 828 826 826 825 825 826 826 826 825 824 823 823 821 819 819 818 818 817 817 816 815 815 814 813 813 813 812 811 810 809 808 808 808 807 806 806 805 805 805 805 806 806 806 805 804
745 749 746 743 742 741 744 751 753 752 754 759 762 767 777 781 777 777 774 771 786 792 771 763 766 771 789 795 789 796 800 801 812 820 824 827 828 831 831 831 831 830 828 827 826 827 826 826 826 825 825 824 823 822 821 820 820 819 819 818 818 817 816 815 814 813 812 812 811 809 808 807 806 806 806 805 805 805 804 804 804 803 803 802 802 802
749 748 744 744 743 742 747 756 760 757 757 760 759 766 781 790 794 792 786 784 788 784 772 767 768 776 789 789 788 799 806 809 816 820 825 828 830 832 833 832 832 831 830 829 828 829 828 828 828 827 827 826 825 823 822 821 821 820 820 819 819 818 817 816 815 814 813 811 810 809 808 807 805 804 804 804 804 804 804 803 803 802 802 801 801 801
755 747 742 746 747 743 745 753 762 764 762 761 760 765 776 786 801 803 791 786 785 780 777 770 772 789 800 797 796 805 812 815 819 823 827 829 831 833 833 833 833 832 832 831 830 831 830 830 830 830 829 828 827 825 824 823 822 821 821 820 819 818 817 816 815 814 813 811 810 809 808 806 805 803 803 802 802 803 803 802 802 801 801 800 800 800
757 755 746 746 746 743 744 744 750 756 758 758 753 756 765 769 782 793 785 781 781 780 782 780 781 793 803 807 809 812 814 813 817 823 827 830 832 833 833 834 834 834 833 833 833 833 833 832 832 832 831 830 829 828 826 825 824 822 821 821 820 818 817 816 815 813 812 811 810 809 807 806 805 803 802 801 802 802 801 801 801 800 800 799 799 799
750 751 737 737 738 737 745 741 737 749 758 755 747 754 763 754 755 775 779 773 773 778 787 792 794 797 803 811 814 813 815 814 817 823 826 830 831 832 835 835 835 836 835 835 835 834 834 834 834 834 833 832 831 829 828 827 825 824 822 821 819 818 817 816 814 813 812 811 810 808 807 806 805 804 802 801 801 801 800 800 800 800 799 799 798 798
747 743 729 734 738 733 739 738 735 745 753 754 754 757 756 741 743 769 783 777 772 781 793 795 800 809 812 817 815 812 815 817 820 824 827 831 832 833 836 837 838 838 837 837 836 836 836 835 835 835 833 833 831 830 830 828 827 825 823 821 819 818 817 816 814 813 812 811 810 808 807 806 805 804 803 801 800 800 799 799 799 799 798 798 797 796
738 740 731 735 742 735 732 734 737 737 739 751 758 751 746 746 748 758 775 785 781 785 795 794 798 808 809 814 816 811 814 820 821 826 830 833 834 836 839 841 841 840 839 838 837 837 837 836 836 836 835 834 833 831 830 829 827 826 824 822 820 818 817 815 814 813 812 811 810 809 807 806 805 804 803 801 800 799 798 797 797 796 796 796 795 795
730 739 738 733 736 736 731 736 744 741 735 742 744 738 745 762 766 759 769 784 783 787 797 794 794 798 796 803 811 810 815 820 819 824 830 834 836 838 840 841 840 840 840 839 838 838 838 838 837 837 836 835 833 832 831 830 828 826 824 822 821 819 818 817 815 814 813 811 810 809 807 806 805 804 802 801 799 798 796 795 795 794 794 794 793 793
727 738 744 733 729 734 737 741 748 749 744 741 737 736 742 752 758 758 761 766 771 782 795 798 799 793 787 793 801 807 813 815 817 826 832 835 838 839 839 840 840 840 841 840 840 840 840 840 839 839 838 836 834 833 831 830 828 826 825 823 822 821 819 818 816 814 813 812 810 809 807 805 804 803 802 800 798 796 795 794 793 793 793 793 792 792
728 738 744 739 734 738 742 740 738 741 744 746 746 746 746 744 743 751 756 752 756 770 784 796 800 792 787 789 792 801 809 810 816 828 833 836 840 841 841 842 842 842 843 843 843 843 842 842 841 841 839 836 834 833 832 830 829 827 825 824 822 821 820 818 817 815 814 812 810 808 806 805 803 802 801 799 797 795 793 792 792 792 792 792 792 791
729 734 739 742 741 739 737 734 732 733 733 738 744 742 744 745 744 756 766 755 748 756 767 779 788 794 800 797 794 803 809 810 816 825 832 837 840 842 843 843 844 845 845 845 845 845 844 843 843 841 839 837 835 834 832 831 829 827 826 824 823 821 820 818 817 815 814 812 810 808 806 805 803 801 799 797 795 794 792 791 790 790 791 791 790 790
726 727 733 739 738 736 736 736 736 736 731 731 735 732 734 740 742 753 765 759 754 756 758 762 777 801 814 809 807 814 814 815 821 824 831 838 840 843 844 844 846 847 847 847 846 846 845 844 843 841 839 838 837 835 833 831 829 827 826 824 823 822 821 819 817 815 813 812 810 808 807 805 803 801 798 796 794 793 792 791 790 789 789 789 789 788
728 728 733 740 738 735 738 738 736 736 736 736 735 731 731 734 735 739 743 748 757 762 762 765 779 805 822 819 819 823 822 824 827 828 834 840 842 844 845 846 848 848 848 848 847 847 846 845 844 842 841 840 838 836 834 832 830 828 827 825 824 823 822 820 818 815 813 811 809 808 806 804 802 800 798 796 794 793 791 790 789 788 788 787 787 787
731 731 735 746 752 752 751 749 745 742 739 739 740 740 739 735 733 736 737 742 754 759 759 763 778 804 823 825 826 828 829 831 832 833 838 841 844 846 847 849 850 849 849 848 848 848 847 846 846 845 844 842 840 838 835 833 831 829 828 827 825 825 823 821 819 817 814 812 809 807 805 803 802 800 798 796 794 792 791 789 788 787 786 786 785 785
733 740 739 744 752 756 756 754 750 744 740 742 746 748 747 741 737 739 744 751 759 761 756 757 780 813 826 826 829 832 834 838 838 839 842 843 846 847 848 851 851 850 851 849 849 849 848 848 848 847 846 844 841 840 837 835 833 832 831 829 828 827 825 823 821 818 816 814 811 808 806 804 802 799 798 796 794 792 790 788 787 786 785 784 783 783
737 748 748 746 745 746 750 751 746 740 739 746 752 751 750 750 745 741 745 751 754 758 759 759 781 814 826 825 830 833 836 840 841 842 845 846 847 847 849 851 852 851 851 851 851 850 849 849 849 848 847 845 843 842 839 838 836 834 834 832 830 828 826 824 822 819 818 815 813 810 807 804 802 800 798 796 793 792 790 788 786 785 784 783 782 781
736 751 757 755 753 752 753 752 747 743 745 750 754 754 754 756 751 747 752 754 747 752 766 772 784 806 819 824 829 834 838 842 843 844 846 847 847 848 850 852 852 852 852 851 851 850 849 850 850 850 849 847 845 843 841 840 838 836 836 833 831 829 827 825 822 820 818 816 813 811 808 805 803 800 798 795 793 791 789 787 785 783 782 781 780 779
734 755 761 758 759 759 756 754 750 749 754 758 759 760 759 757 754 756 762 760 752 754 767 777 787 802 816 825 830 836 841 844 847 848 847 847 848 849 850 851 853 853 853 853 853 852 851 850 851 851 850 848 846 844 843 841 839 838 836 834 832 829 827 825 822 820 818 816 814 811 808 806 803 800 798 795 793 790 788 786 783 782 781 779 778 778
736 758 761 757 762 764 759 759 757 756 759 763 765 766 764 762 761 763 766 763 761 765 772 782 797 812 824 832 836 841 844 846 849 849 848 848 850 850 851 852 852 854 855 855 855 854 852 852 852 852 850 849 848 846 844 843 840 839 837 834 832 829 827 826 823 821 819 817 815 812 809 806 803 801 798 795 793 790 788 786 783 781 779 778 777 776
739 759 760 754 762 768 763 762 763 761 764 770 775 774 770 771 773 773 776 774 774 784 793 800 814 828 835 838 841 844 846 847 849 850 850 852 853 853 853 853 854 856 856 856 856 855 854 853 853 852 851 850 849 847 846 844 842 840 838 835 833 830 828 826 824 822 820 818 816 813 810 807 804 801 798 795 793 791 789 787 784 781 779 777 776 774
738 756 759 751 759 772 768 763 766 765 765 774 786 788 783 783 788 788 786 782 783 795 803 804 814 832 840 840 842 845 846 848 850 852 853 854 855 854 854 855 857 858 857 858 857 857 856 854 853 853 852 851 850 849 847 845 843 841 839 836 834 831 829 827 824 823 821 819 817 814 810 807 804 801 799 796 794 792 790 788 785 783 780 777 776 774
735 752 756 747 758 775 768 761 767 763 759 772 793 802 796 790 794 796 793 789 788 792 794 796 811 833 839 839 842 847 848 850 852 854 855 856 856 855 855 856 858 859 859 859 858 858 857 855 854 854 853 852 851 849 848 846 845 842 840 838 835 833 830 827 825 824 821 819 817 814 812 809 805 803 800 797 795 793 791 789 786 784 781 778 776 774
736 743 744 738 754 773 769 765 769 762 765 786 802 804 797 790 793 800 802 801 799 798 798 805 821 834 837 839 843 848 851 853 855 856 857 857 857 857 858 860 860 861 861 860 860 860 859 857 857 856 854 853 851 850 849 847 846 844 841 839 836 834 831 829 826 824 822 820 818 815 813 810 807 804 801 799 796 794 792 790 787 785 782 779 777 774
737 736 737 737 749 765 768 765 766 770 785 803 804 797 794 794 798 805 810 811 810 812 816 821 830 836 839 843 847 849 853 855 856 859 860 859 859 860 861 862 863 863 863 862 862 861 860 859 858 856 855 854 852 850 849 848 846 844 842 840 837 835 833 830 828 825 823 821 819 817 814 811 809 806 803 800 798 795 794 791 789 786 784 781 779 776
734 734 736 741 749 761 765 762 768 788 805 809 804 798 797 797 796 801 814 821 819 818 822 828 835 840 842 846 850 853 855 857 858 861 862 862 862 862 862 864 864 864 864 863 863 862 861 860 859 858 857 855 854 852 851 849 847 845 842 840 838 836 834 831 829 827 824 822 820 818 816 813 811 808 805 802 800 797 795 793 791 789 786 784 781 778
729 731 736 747 754 757 765 777 792 804 806 806 808 803 797 796 792 792 811 829 826 821 825 832 838 842 844 847 852 855 855 856 861 864 864 864 864 863 864 864 864 864 864 863 863 862 862 861 860 859 858 856 855 854 852 850 848 845 843 841 839 837 835 833 831 829 826 824 822 820 818 816 813 810 808 805 802 800 798 796 794 792 789 787 784 781
728 728 732 748 758 755 762 784 796 793 789 795 802 799 795 798 795 790 804 827 832 827 829 835 838 842 846 848 852 854 851 853 862 868 867 865 865 864 865 865 865 865 864 864 863 863 863 862 861 860 858 857 856 855 853 851 849 847 845 843 841 839 837 835 833 830 828 826 824 822 820 817 815 813 810 808 805 803 801 799 797 795 793 791 788 786
731 730 729 742 757 756 755 766 773 777 783 789 793 796 796 796 796 791 796 817 833 833 832 836 839 842 846 848 851 851 846 849 863 869 867 866 866 866 866 866 866 866 865 865 865 864 863 862 861 860 859 857 856 855 853 852 850 848 847 845 843 841 838 837 834 832 830 828 826 824 822 819 818 815 813 811 808 806 804 802 800 798 796 794 792 790
737 736 735 742 753 754 752 757 768 784 795 793 791 795 794 794 798 793 790 808 829 833 832 836 838 841 845 847 849 848 841 845 859 867 865 866 867 866 867 867 867 866 866 866 866 864 864 862 861 860 859 858 857 856 854 853 851 850 849 847 845 843 840 838 836 834 832 830 828 826 824 822 820 818 815 814 811 809 808 805 803 801 799 797 795 794
748 746 743 744 750 754 755 761 774 792 801 796 793 795 794 796 797 792 791 807 824 829 831 835 838 841 844 845 848 850 847 848 857 863 865 866 867 867 868 868 867 867 867 867 866 864 863 862 861 861 860 859 858 856 855 854 852 851 850 848 846 844 842 841 838 836 834 832 830 828 826 824 822 820 818 816 814 812 810 808 806 803 801 799 798 796
755 755 751 750 752 754 757 763 774 790 801 799 795 797 797 796 795 798 805 814 820 825 831 835 837 841 845 845 848 853 855 856 860 863 864 866 866 867 867 867 867 868 867 867 867 865 864 863 862 862 861 860 859 858 856 855 853 852 851 849 848 846 845 842 840 838 836 834 832 831 828 826 824 822 820 818 816 814 812 810 809 807 804 802 800 798
761 758 755 761 765 759 758 766 774 785 797 800 797 797 799 799 801 807 814 817 821 827 832 836 840 843 846 848 851 853 856 858 861 863 864 865 866 867 867 867 868 868 868 867 867 866 865 864 863 862 862 861 860 859 857 856 855 853 852 850 849 847 846 844 842 840 838 836 834 832 830 828 825 823 822 820 818 816 814 813 812 810 808 806 803 801
770 764 756 767 776 765 760 774 787 793 798 800 799 798 801 804 806 808 811 818 825 830 832 836 842 844 845 849 852 854 858 859 861 863 864 865 866 867 868 869 868 868 868 868 867 867 865 865 864 863 863 862 861 860 859 857 856 854 852 851 850 848 847 845 843 841 839 837 836 834 833 831 828 826 824 822 821 819 817 815 814 812 811 809 807 804
777 775 767 776 791 787 781 792 806 806 803 803 803 802 804 806 808 808 811 818 824 828 831 836 841 844 847 850 853 856 858 859 860 862 864 865 867 868 868 869 868 868 868 868 867 867 866 865 865 864 864 863 862 861 859 858 857 855 853 852 851 849 847 846 844 843 841 839 838 836 835 833 831 829 827 825 823 821 820 818 817 815 814 812 810 808
782 782 777 785 800 803 802 809 811 809 808 808 807 807 808 810 812 813 816 820 824 828 833 837 841 845 848 850 852 855 857 859 860 862 863 865 866 866 867 868 868 867 868 868 868 867 866 865 865 865 865 864 863 862 861 859 858 856 855 853 852 850 848 847 845 844 843 841 840 838 837 835 834 832 830 829 826 825 823 822 820 819 817 815 814 812
786 781 779 785 791 794 804 816 816 813 815 814 812 813 814 814 816 818 820 824 828 831 835 839 843 846 847 849 852 854 856 859 860 861 862 863 864 865 866 867 867 868 868 869 868 868 866 866 865 865 865 865 864 863 862 860 859 857 856 854 852 851 850 848 847 845 844 843 842 840 839 837 836 834 833 832 830 828 826 825 824 823 821 819 818 816
780 779 781 787 792 797 809 820 818 815 818 816 815 818 818 818 821 823 824 827 831 834 838 841 843 846 847 849 852 853 855 858 858 859 861 862 863 865 866 866 868 868 869 869 869 868 867 867 866 866 866 865 864 863 862 861 860 858 857 856 854 852 851 850 848 847 845 844 843 842 841 840 838 837 835 834 833 832 830 829 828 827 825 824 822 820
775 778 782 792 804 811 816 820 819 818 822 821 819 821 821 821 823 825 827 830 833 835 839 842 844 846 848 849 852 853 855 857 859 860 861 863 864 866 867 868 869 869 869 870 870 869 869 868 868 867 867 866 865 864 863 862 861 859 858 857 855 853 852 850 849 848 847 846 845 844 842 841 840 839 837 836 836 835 834 833 831 830 829 828 826 825
775 779 786 796 807 810 810 813 812 812 819 823 823 822 823 823 824 826 829 832 834 837 840 842 845 848 850 851 854 855 856 858 860 861 862 863 865 867 867 868 869 869 870 870 870 870 870 869 869 868 867 867 866 865 865 863 862 861 860 858 856 855 853 851 850 849 848 847 847 846 844 843 842 841 840 839 838 837 836 836 834 833 832 831 830 828
777 780 784 787 791 795 801 806 804 804 814 823 823 822 823 823 824 827 830 833 836 839 841 843 846 849 851 854 856 857 858 860 861 862 863 865 866 868 868 868 869 869 870 870 870 870 870 869 869 869 868 867 867 866 865 864 863 862 861 859 858 857 855 854 852 851 850 849 848 848 846 844 843 842 841 841 840 839 838 837 836 835 834 833 832 831
Wind_Speed
9 8 9 10 11 14 14 15 12 7 6 10 11 10 9 10 9 8 10 6 7 10 7 7 10 9 8 9 8 7 8 9 9 7 5 4 5 6 7 7 5 5 7 8 8 7 5 3 2 4 5 6 6 3 2 3 3 4 5 5 4 4 7 11 11 10 9 10 12 14 14 14 14 15 15 15 15 15 15 14 13 11 12 14 16 20
10 10 11 13 13 15 16 16 11 6 8 9 9 9 9 10 9 9 9 6 5 6 6 9 10 9 8 9 8 7 9 10 9 7 7 6 6 6 7 7 7 7 8 9 10 9 9 7 6 6 5 5 7 5 2 3 2 1 2 1 2 3 6 10 10 10 10 12 14 14 13 12 12 13 13 14 14 15 16 14 13 13 13 13 16 18
10 10 13 15 14 14 14 14 11 9 9 9 8 9 8 8 10 9 7 7 5 4 7 10 9 8 8 9 9 9 9 10 9 9 8 7 7 8 8 9 9 9 9 10 11 11 11 9 7 6 6 5 6 7 5 4 5 5 5 3 2 3 4 7 9 10 12 12 11 11 11 11 12 12 13 13 12 12 15 14 13 13 13 13 15 16
9 10 13 14 13 13 13 13 14 11 9 9 8 8 8 10 11 8 7 8 5 4 9 11 8 6 6 7 9 10 9 10 11 12 10 8 9 10 10 10 10 11 11 12 13 12 13 12 10 8 6 5 5 5 6 6 8 8 8 8 6 2 3 5 6 9 10 10 9 8 9 9 11 12 11 11 12 12 14 14 13 12 12 12 14 14
9 9 13 14 14 15 14 14 15 11 9 10 10 9 9 12 11 7 10 9 6 6 11 12 8 5 5 6 8 8 9 10 11 12 11 10 10 11 12 12 13 13 13 13 13 13 14 14 13 11 8 8 7 8 8 9 10 10 10 11 9 5 4 3 4 6 7 7 7 6 6 6 9 11 9 9 12 13 13 14 13 11 11 9 10 12
10 9 13 16 16 17 16 14 15 13 9 9 12 10 8 13 11 10 14 11 7 7 11 11 8 6 5 5 7 7 8 10 10 12 12 11 12 12 12 12 13 13 13 13 13 13 14 15 14 13 13 12 11 11 11 11 11 11 11 11 9 7 4 2 2 3 4 6 6 6 6 6 9 9 7 8 12 13 12 12 10 8 7 7 10 13
9 11 14 15 16 18 16 14 16 16 10 8 11 10 7 10 11 11 14 12 6 6 11 10 7 6 7 5 6 8 10 11 10 12 12 11 12 11 11 11 11 11 11 12 13 14 14 15 15 15 15 14 14 13 13 13 12 12 12 12 10 8 6 4 2 2 3 4 6 7 6 7 9 8 5 6 10 11 11 9 7 6 7 7 9 11
9 13 15 16 17 16 13 12 15 17 11 6 11 13 9 8 10 11 12 10 5 6 9 10 9 5 7 6 7 9 11 11 10 11 10 10 11 11 11 11 11 11 11 11 11 12 14 15 16 15 16 16 16 16 15 15 15 14 13 12 10 9 7 6 4 2 2 4 5 6 6 7 9 6 5 6 7 9 9 7 6 6 7 7 8 8
11 15 16 18 16 13 12 12 14 17 12 4 10 13 11 8 10 11 10 9 6 5 8 11 10 7 7 7 7 10 11 10 9 9 9 10 10 11 11 11 11 11 11 11 11 12 14 16 16 15 15 16 17 17 17 17 17 16 15 14 11 9 8 7 5 3 2 3 4 5 5 7 7 5 5 7 7 7 6 5 5 6 6 6 8 9
11 15 17 17 14 11 13 12 14 17 11 6 9 9 6 6 8 8 8 8 7 7 9 13 13 9 7 8 8 10 11 9 9 7 7 9 10 10 11 11 10 10 10 10 11 13 15 15 16 16 16 18 17 17 17 16 16 15 15 15 14 12 10 8 6 5 3 3 4 5 6 7 7 6 7 8 8 7 6 6 6 6 6 7 10 12
10 11 13 14 12 12 13 11 13 16 10 9 10 8 5 6 6 6 7 6 7 9 10 14 15 11 6 9 8 6 8 9 9 7 7 9 10 11 10 10 10 9 9 9 11 14 15 15 15 16 17 17 17 16 16 15 15 15 15 16 15 14 13 11 9 7 5 4 5 6 6 6 6 7 9 9 9 8 7 6 7 7 7 8 11 12
11 11 10 10 11 11 11 10 10 12 10 9 10 8 7 6 5 6 6 6 8 9 8 12 14 11 7 7 8 7 9 9 9 7 8 9 10 10 9 9 9 8 9 10 10 12 14 15 16 17 17 17 17 17 16 16 15 14 14 15 14 14 13 12 11 10 9 8 8 8 6 6 6 7 9 9 9 8 7 7 8 8 8 8 10 11
10 12 12 11 10 11 11 10 8 9 10 10 10 10 9 7 6 8 9 8 8 6 6 10 12 9 3 6 10 11 11 10 10 9 9 9 9 9 9 9 9 9 10 10 11 11 12 15 16 16 16 16 16 17 16 15 15 13 13 14 13 13 13 12 12 11 11 11 11 10 9 7 8 9 10 10 9 9 8 9 10 10 9 9 9 10
8 11 15 14 11 12 13 10 9 9 10 12 10 10 11 9 9 10 9 9 9 5 7 7 10 7 5 7 10 12 12 12 12 10 9 9 9 9 9 9 9 10 10 10 11 10 12 14 15 15 15 14 15 16 16 15 15 14 13 13 13 13 12 13 12 12 11 11 11 10 10 9 10 10 11 10 9 10 10 10 12 12 11 10 9 10
10 10 13 14 10 13 16 12 10 10 11 12 10 10 10 8 9 9 8 10 10 7 8 6 7 6 6 8 11 12 11 12 12 11 10 9 8 8 9 9 9 10 10 10 10 11 13 14 14 14 14 14 14 14 15 14 15 14 14 14 14 14 14 14 13 12 11 10 9 10 9 10 11 11 12 11 9 10 11 11 12 12 11 12 11 11
12 8 13 16 11 15 18 14 12 12 10 10 10 10 10 10 9 5 3 4 6 7 7 5 2 2 5 10 12 11 11 11 11 10 9 9 8 7 8 9 9 9 9 10 9 10 13 14 14 14 14 14 13 14 14 14 15 15 15 15 15 15 15 15 14 13 12 10 9 9 9 10 11 11 12 12 10 11 12 12 12 12 12 13 13 12
10 7 14 17 11 15 19 16 14 13 9 8 10 11 6 7 7 5 2 2 3 7 6 5 5 6 6 8 10 11 12 11 9 9 9 8 8 8 8 8 8 8 9 10 9 10 12 14 14 14 14 14 14 15 15 15 14 14 15 15 16 16 16 16 16 14 13 12 10 9 9 10 12 11 11 12 12 12 13 13 13 14 14 13 14 14
8 6 13 17 13 13 15 15 15 13 9 7 10 11 5 2 4 6 6 4 7 8 5 6 9 10 8 6 9 12 12 11 9 9 9 8 9 8 8 7 7 8 8 9 10 11 13 13 14 14 14 15 15 15 15 15 15 14 15 16 16 17 18 18 17 15 14 14 12 10 10 11 12 11 10 11 12 13 14 13 13 15 15 14 15 16
8 6 10 16 16 13 11 12 14 11 10 8 10 11 8 5 6 8 7 7 10 8 5 8 11 9 8 7 11 14 13 12 11 10 9 8 8 7 7 7 7 8 8 9 9 10 12 13 14 14 14 14 14 14 15 15 15 15 15 16 16 16 17 17 17 16 15 15 13 12 12 12 11 11 10 9 10 12 14 14 14 15 15 15 15 16
8 6 7 11 12 12 11 10 11 10 8 9 9 11 9 7 7 8 6 6 9 8 6 8 9 7 6 8 13 15 14 14 12 10 8 8 8 7 7 7 8 8 8 9 8 9 11 12 13 14 14 14 14 14 14 14 15 15 16 16 16 16 16 16 16 16 15 15 14 14 13 13 12 11 10 9 9 11 13 14 14 14 16 16 16 16
7 6 5 9 9 10 11 9 10 12 12 9 9 11 11 7 5 7 6 4 7 8 7 7 8 6 4 5 12 16 14 13 13 12 9 8 9 8 8 8 8 8 8 8 8 8 10 12 12 14 14 13 13 14 14 14 14 15 16 17 17 17 17 17 17 16 16 15 15 15 15 14 13 12 11 11 9 10 12 13 13 14 16 17 17 16
6 7 6 9 10 11 10 5 3 7 10 11 10 11 11 8 7 9 7 4 6 6 7 7 7 5 5 3 7 12 11 11 14 13 10 9 9 9 9 9 9 9 8 8 7 8 10 12 13 13 13 13 13 14 15 15 15 16 17 17 17 17 18 19 18 17 17 16 16 16 16 15 14 13 13 13 11 10 12 12 13 14 14 16 16 15
3 6 7 9 9 7 6 5 2 1 3 7 8 10 12 10 9 9 8 7 6 5 4 6 6 4 5 5 8 10 9 10 13 13 11 10 9 9 9 10 10 9 8 8 8 9 11 12 13 13 13 13 14 15 15 15 16 16 17 18 18 18 20 20 19 19 18 18 18 18 17 16 16 15 14 14 13 12 11 12 13 13 14 15 14 14
2 5 8 8 6 5 6 5 2 2 3 6 6 7 10 10 10 8 6 8 8 6 6 6 5 4 5 6 9 10 10 11 11 11 12 10 9 9 10 10 9 8 8 8 9 10 11 12 13 13 13 14 14 15 15 16 17 17 17 18 19 19 20 20 19 20 20 20 20 20 18 18 18 17 16 15 14 13 13 13 13 13 14 14 13 14
4 5 7 8 8 6 6 6 6 6 7 7 5 3 2 5 9 6 4 7 8 7 8 7 4 5 6 7 9 11 12 12 11 11 11 9 9 9 9 9 8 8 8 8 9 10 11 13 13 13 14 14 14 15 15 16 16 16 17 17 18 18 19 19 19 20 21 21 22 21 20 20 19 18 17 16 15 15 15 15 14 13 13 13 14 15
3 1 2 8 12 11 10 9 7 7 8 4 4 4 0 2 8 7 5 7 7 7 8 6 3 6 8 10 11 11 12 12 11 11 9 9 9 9 9 8 7 7 8 9 9 10 10 12 13 14 14 14 14 15 15 15 15 15 16 17 17 17 18 18 18 19 19 20 21 21 21 21 20 18 18 17 16 16 15 14 14 14 13 13 14 16
3 3 5 1 5 6 5 3 1 4 8 6 5 5 3 1 2 5 7 7 6 8 7 3 10 13 11 12 12 11 11 11 11 10 10 9 9 10 10 8 7 7 8 8 8 9 10 11 12 13 13 13 14 15 14 14 14 15 16 17 16 16 16 17 17 17 18 18 19 20 20 21 20 19 19 18 17 16 15 14 13 14 13 13 14 15
4 4 6 9 8 6 5 6 4 4 7 8 7 6 4 2 1 3 5 3 4 8 5 7 16 17 13 12 12 11 11 10 10 10 9 9 9 10 10 9 8 8 8 8 8 9 10 10 11 12 12 12 14 15 14 13 13 14 15 16 16 16 16 16 16 17 18 18 19 20 20 20 20 19 19 19 18 17 16 15 15 14 13 13 13 14
4 5 4 8 11 9 7 8 8 10 11 10 9 9 7 5 4 4 4 3 1 3 4 11 17 16 13 13 12 11 11 10 10 9 9 10 10 10 10 9 9 8 8 8 8 9 9 9 10 11 12 12 14 15 14 14 14 14 15 16 16 16 15 16 16 17 18 19 20 21 21 20 20 20 20 20 19 18 18 18 17 15 13 12 12 13
3 5 7 10 12 10 8 9 10 12 13 13 13 11 10 11 11 11 10 9 10 11 12 17 20 15 11 11 12 12 11 10 10 9 10 11 10 10 9 9 9 9 8 8 8 8 8 9 10 11 12 13 14 15 15 15 15 15 16 16 17 16 16 16 17 18 19 20 21 22 21 20 20 21 21 20 20 19 19 19 18 18 17 16 15 15
2 6 9 9 10 9 8 8 9 12 15 16 14 12 10 11 12 12 10 10 12 14 15 19 19 12 8 11 13 11 10 10 10 10 11 10 9 8 9 10 9 8 8 7 8 8 7 8 10 11 13 14 14 15 15 15 15 15 16 17 18 18 17 18 18 18 19 20 21 22 22 21 21 22 21 21 21 20 19 19 18 18 18 17 17 18
4 7 8 6 5 6 7 9 11 13 16 16 14 12 10 9 9 8 7 5 7 13 15 14 11 8 8 11 12 11 11 11 11 11 11 9 8 8 10 10 9 8 7 7 8 7 7 8 10 12 13 14 14 14 14 15 15 15 16 17 18 18 18 18 18 18 19 20 21 22 22 22 22 22 22 22 22 21 20 19 18 18 18 17 16 17
7 9 8 6 5 5 8 9 8 8 10 9 8 8 7 8 10 10 10 9 8 10 9 6 7 10 11 12 13 12 12 11 11 10 9 8 8 9 10 9 8 7 7 7 7 7 8 9 10 11 12 13 14 14 14 15 15 15 16 17 17 18 18 19 18 18 19 20 21 22 22 22 22 22 21 22 22 22 21 20 19 19 18 17 16 15
8 10 7 4 5 7 9 7 3 5 6 4 3 3 3 6 11 12 12 11 9 7 7 10 13 14 12 12 13 13 12 11 11 9 8 8 7 8 9 9 7 7 7 7 7 7 8 9 10 11 11 12 13 13 13 14 14 15 15 16 17 18 19 19 19 19 19 20 21 22 22 22 22 22 21 21 21 22 22 21 20 19 18 17 16 15
9 8 6 4 5 7 8 7 6 5 3 2 1 2 5 9 15 17 16 13 11 12 15 17 16 14 13 13 13 13 13 13 12 10 9 8 7 8 8 8 7 6 6 6 6 7 8 9 10 11 11 12 12 12 13 14 14 14 15 16 17 18 19 19 20 20 20 21 21 22 22 22 22 22 21 21 20 21 21 21 20 19 18 16 15 15
8 6 5 5 5 7 6 5 4 4 3 3 4 5 8 12 13 13 13 12 10 12 15 16 15 14 15 15 13 13 14 13 11 10 9 8 7 7 7 7 7 6 7 7 7 8 9 10 10 10 11 11 11 12 12 13 13 14 15 16 16 17 18 19 20 20 21 21 22 22 22 22 22 22 21 20 20 20 21 20 20 19 17 16 15 14
7 6 6 5 3 4 5 4 4 5 3 3 4 4 5 6 4 5 7 7 6 8 12 15 16 15 15 15 14 13 13 12 10 8 8 8 8 8 8 8 7 8 8 9 9 10 10 10 10 10 10 11 11 11 12 12 13 13 15 16 16 17 18 19 20 20 21 21 22 21 21 21 21 20 20 20 20 20 20 20 19 18 17 16 15 14
3 3 5 5 2 3 6 6 5 6 4 3 6 6 4 2 1 5 8 6 5 7 11 14 16 16 16 15 14 13 10 8 7 5 5 7 7 8 9 9 10 10 10 10 10 11 11 11 11 11 11 12 12 13 12 12 13 14 15 16 17 17 18 19 20 20 21 21 21 20 20 20 20 19 20 20 19 19 19 19 18 17 16 16 15 14
5 3 3 5 5 5 6 5 5 4 2 4 9 9 5 4 4 5 5 4 6 9 11 13 15 15 14 14 12 10 7 5 6 4 5 6 8 8 9 10 11 11 10 10 11 11 11 11 11 12 13 13 14 14 13 13 14 15 16 17 17 18 19 19 20 20 20 20 20 20 20 19 19 19 19 19 19 18 18 18 17 16 16 16 15 14
6 3 2 5 6 6 5 4 4 3 2 5 10 9 6 4 4 6 5 5 9 11 11 13 15 14 12 12 9 4 3 5 7 7 8 9 9 9 10 10 11 10 10 11 10 10 11 11 12 13 14 14 14 14 14 14 15 16 17 17 18 19 20 20 20 20 19 19 19 19 19 19 19 19 19 19 19 18 18 17 16 16 17 17 17 16
5 3 1 4 6 5 4 4 4 3 3 6 8 7 5 4 4 5 2 7 12 13 13 14 14 13 10 9 7 3 5 8 11 11 11 11 10 10 10 10 10 10 11 11 10 10 10 12 13 14 14 14 14 14 14 15 16 17 18 18 19 20 20 19 19 19 19 19 19 19 19 19 18 18 18 19 19 19 19 18 17 17 17 16 17 17
4 3 2 3 4 4 4 5 5 4 4 6 7 6 4 3 2 2 5 11 15 15 14 14 13 11 10 9 9 9 11 13 14 13 11 11 10 10 11 11 11 11 11 11 10 10 10 12 13 13 14 14 14 14 15 15 16 17 17 18 19 19 19 19 19 19 19 19 19 18 18 18 17 16 16 17 18 18 18 17 18 18 17 16 16 17
1 1 4 4 2 2 5 5 3 3 5 8 8 6 2 1 3 8 11 13 15 15 14 13 11 10 11 12 13 13 14 15 14 13 12 12 12 11 11 11 11 10 10 10 10 10 10 11 12 12 13 14 14 14 15 16 17 17 17 18 18 18 17 18 19 19 19 19 18 18 17 18 18 17 16 17 18 18 18 17 18 18 18 17 17 17
3 2 3 3 1 2 4 4 2 3 7 7 5 4 4 5 8 12 12 12 12 12 11 10 10 11 12 13 14 15 14 14 13 13 12 12 12 12 11 10 10 10 9 9 9 9 10 11 11 12 13 13 14 14 14 15 16 17 17 18 17 17 17 17 18 19 20 19 19 18 18 18 20 20 19 18 19 19 19 18 17 18 18 18 18 18
4 3 3 4 4 3 4 5 4 5 8 6 5 6 10 11 10 11 13 13 11 10 10 10 11 13 14 15 16 15 14 14 13 13 12 11 12 12 11 10 9 9 9 9 9 9 9 10 11 11 12 13 13 13 14 15 16 17 17 17 16 16 17 17 17 18 19 20 20 20 19 18 19 21 20 19 19 19 20 19 18 18 18 18 17 17
5 4 3 5 7 8 8 8 7 7 9 9 9 9 11 11 10 11 13 13 11 11 11 11 13 15 15 15 15 14 13 14 14 13 12 12 12 11 10 10 9 8 9 9 8 8 8 9 10 11 12 12 13 13 13 14 15 15 16 16 16 16 16 16 16 17 18 19 19 19 20 20 19 20 21 20 19 19 19 20 19 19 18 18 18 17
4 2 3 6 8 5 4 6 8 9 10 11 10 11 11 11 11 11 11 12 12 13 14 14 15 16 16 15 15 15 14 14 13 12 11 11 11 11 11 10 9 9 9 9 8 8 8 9 10 10 11 12 12 13 13 14 14 14 15 16 16 16 16 16 16 16 17 17 17 18 19 20 19 19 21 21 20 20 20 19 20 21 21 19 18 17
4 5 6 7 6 4 6 8 9 10 11 10 10 10 10 11 13 13 12 13 15 16 17 17 17 16 15 15 15 15 15 13 12 11 10 9 10 11 10 10 9 8 8 8 8 8 9 10 10 11 11 11 12 13 13 14 14 14 14 16 16 16 15 15 15 15 16 16 17 17 18 18 18 18 19 19 19 20 20 20 19 20 21 21 20 18
5 6 6 7 8 8 8 10 11 11 10 8 9 10 10 11 14 15 16 17 18 18 18 18 18 17 16 16 15 14 13 12 12 11 10 9 10 10 9 8 8 8 8 7 7 8 9 10 10 11 11 11 11 12 13 14 14 14 15 15 16 16 16 15 15 15 16 16 16 16 16 17 18 18 18 18 17 17 19 21 21 19 18 20 21 21
6 7 7 9 9 7 7 11 11 9 8 8 10 12 13 14 16 18 19 19 18 18 18 18 18 18 18 17 16 14 12 11 11 12 11 10 9 9 8 7 7 7 7 6 6 7 8 9 10 11 11 11 11 12 13 14 14 14 15 16 16 16 16 15 15 16 16 16 16 15 15 16 17 17 17 17 16 14 15 18 21 21 19 18 18 19
4 7 7 6 6 8 11 13 10 8 9 11 12 14 15 16 18 19 19 18 18 18 19 18 17 16 15 16 16 15 13 12 11 11 11 10 9 8 7 7 7 7 6 6 6 7 7 8 9 10 11 11 11 11 12 13 14 14 15 16 16 16 16 16 16 16 16 16 15 14 14 15 15 15 15 16 16 15 13 13 16 20 21 21 19 18
Wind_Direction
185 193 202 206 202 196 199 206 215 229 205 184 184 194 188 185 183 147 128 129 188 190 163 136 119 101 83 72 67 69 65 55 56 65 84 126 158 161 159 153 132 93 68 60 56 57 65 66 60 58 60 70 66 65 242 240 204 219 229 205 218 240 218 216 218 218 214 222 237 241 245 247 247 243 237 230 227 229 234 238 242 249 252 250 253 253
190 209 206 203 206 196 196 204 207 211 199 190 194 192 188 190 170 143 136 139 196 195 129 116 114 95 77 74 69 71 69 57 57 64 74 97 126 138 128 106 86 73 65 64 65 69 77 80 78 71 62 58 53 47 0 319 349 332 294 200 181 189 193 206 213 216 217 224 234 238 242 247 253 253 248 244 240 240 241 243 245 254 263 267 268 264
197 217 209 200 205 197 192 198 197 199 201 199 200 193 192 179 143 130 135 146 187 196 141 138 126 99 82 77 74 73 73 69 70 72 69 79 96 103 95 82 75 73 69 65 65 72 78 75 69 62 50 43 46 49 38 357 355 1 345 325 239 207 210 221 224 229 232 231 234 239 243 246 250 252 254 257 258 255 251 247 248 254 260 266 270 270
197 211 205 192 189 188 183 192 200 203 207 209 202 195 191 169 153 154 149 144 167 175 151 146 130 111 105 98 88 78 82 85 84 82 78 80 87 88 86 80 75 73 72 69 65 65 67 64 61 59 49 40 42 44 39 19 13 9 356 344 336 318 276 265 250 241 240 243 244 247 252 258 261 257 255 260 263 263 258 252 250 249 248 254 266 274
206 202 190 180 182 189 187 188 197 202 206 210 207 205 189 176 176 160 142 137 133 145 156 155 145 130 121 116 107 93 90 88 86 89 86 88 91 85 80 76 71 70 68 68 67 64 63 59 55 51 42 34 32 29 24 20 21 16 7 2 0 355 335 312 275 256 247 244 237 235 246 257 266 262 251 252 260 261 259 256 253 251 247 246 258 268
215 187 173 183 190 194 193 189 195 201 202 201 209 218 192 180 176 137 139 153 149 161 176 181 183 159 133 117 118 115 102 89 85 85 74 70 76 74 70 68 68 67 64 65 63 62 61 58 53 47 42 38 32 29 24 23 24 19 18 17 17 20 15 0 296 264 254 245 228 222 229 234 252 261 252 252 260 260 260 259 258 261 264 263 263 264
209 170 172 189 191 193 196 196 196 199 207 199 196 211 203 184 178 152 162 181 180 171 180 203 225 174 150 131 124 125 113 103 94 83 67 58 62 65 64 61 61 61 61 62 57 55 54 51 49 43 37 35 31 30 29 28 26 22 22 21 24 34 36 22 347 272 265 258 237 228 233 242 256 268 271 269 269 267 267 269 271 271 273 277 272 264
188 173 183 190 189 194 199 200 194 197 216 198 170 191 205 193 187 178 185 200 187 137 161 206 239 202 165 148 140 142 127 114 101 86 73 64 63 61 62 59 56 57 58 59 55 51 48 45 44 40 34 31 29 29 29 29 29 28 26 24 28 36 36 30 21 342 300 270 242 235 242 258 270 278 281 275 269 267 266 269 275 269 261 266 270 262
173 182 186 188 192 196 202 201 185 194 217 163 148 188 205 204 204 196 200 210 191 160 178 199 220 214 170 147 155 162 146 126 111 99 81 71 68 62 60 58 57 57 57 57 56 51 47 44 42 41 36 32 29 28 28 30 32 31 27 30 36 37 34 30 25 13 334 288 260 247 248 264 274 270 262 258 254 257 257 258 261 256 246 252 266 264
173 191 188 189 197 197 202 198 178 193 209 130 137 179 194 212 224 215 217 214 189 204 209 187 197 217 175 151 169 177 164 139 119 111 87 73 70 64 58 56 55 56 56 55 55 51 47 43 40 41 40 35 30 28 29 31 33 30 26 26 30 31 29 27 21 14 359 320 290 281 273 275 281 267 256 253 251 251 249 250 250 250 251 257 270 270
165 188 195 197 205 200 197 187 178 193 186 133 149 168 167 202 226 223 230 228 200 214 216 183 190 220 195 163 168 160 146 134 126 117 94 75 66 61 56 54 52 52 55 54 54 51 47 43 40 39 39 35 30 29 30 29 28 29 26 22 21 19 17 17 11 3 353 330 303 301 290 276 278 270 260 257 257 253 243 241 245 249 250 257 272 275
167 184 196 197 209 205 187 170 175 188 174 161 177 177 171 186 208 213 212 222 218 214 199 169 182 218 214 170 154 123 110 121 128 115 96 81 69 63 56 56 54 52 55 54 51 47 43 40 36 34 33 29 27 27 27 26 25 26 25 21 17 12 9 8 5 359 352 341 329 320 304 277 268 263 258 259 261 256 242 237 245 247 239 245 263 268
184 194 188 185 200 204 189 175 174 181 184 196 196 182 184 180 189 208 201 204 215 196 151 155 178 208 187 130 140 131 113 106 105 97 91 84 75 70 63 59 56 53 54 52 48 44 38 35 31 28 26 23 22 21 20 19 18 19 19 16 12 6 3 1 359 360 356 350 344 334 321 301 278 264 257 255 257 257 246 238 239 237 232 239 252 255
186 195 191 189 191 200 206 195 180 183 192 203 200 190 193 184 185 203 198 198 205 161 118 157 185 182 129 116 121 120 114 107 101 96 92 86 77 71 65 62 57 53 51 49 46 42 37 34 30 26 23 20 18 16 14 12 9 8 9 8 5 359 357 357 356 359 0 355 348 335 325 312 293 279 266 256 255 260 254 242 237 232 228 234 242 245
188 191 190 195 189 190 207 212 188 183 194 201 205 204 205 199 193 200 200 200 198 157 122 162 191 177 157 128 108 112 117 111 104 99 94 88 82 76 68 63 58 52 49 48 46 42 38 35 31 26 21 18 15 12 9 5 1 360 359 360 359 355 354 355 354 354 356 356 351 339 329 316 302 293 283 271 263 265 262 250 241 236 232 232 232 237
199 195 178 189 194 184 199 215 197 187 196 198 205 210 213 216 203 185 212 217 186 156 136 152 157 99 122 115 112 124 121 109 105 100 94 85 82 78 66 59 54 48 47 47 45 41 38 35 31 26 21 16 14 12 8 3 358 355 355 356 355 354 355 355 353 350 346 345 347 343 335 324 312 301 296 291 279 266 262 257 251 247 242 236 229 232
201 190 165 177 191 187 195 203 193 195 195 183 203 206 205 237 215 164 117 51 155 173 159 152 132 112 121 121 131 141 123 113 114 103 96 88 82 75 62 54 49 45 46 44 42 39 35 33 29 25 21 18 16 12 9 5 2 357 356 355 354 354 355 354 353 349 343 339 338 339 339 333 325 314 304 298 290 275 265 260 257 254 250 239 229 231
199 181 162 176 188 185 193 194 189 204 205 183 201 195 168 262 229 187 177 158 188 195 175 172 164 152 160 155 154 156 138 130 129 114 108 99 88 80 68 59 53 51 51 47 44 40 35 31 28 25 21 18 15 10 8 6 5 2 0 359 357 356 355 353 351 347 345 341 336 336 338 337 333 324 310 296 289 285 277 268 261 257 253 244 235 234
205 191 163 185 191 172 181 193 187 203 222 217 203 183 177 201 199 199 200 184 194 197 166 175 177 173 180 166 163 165 154 150 144 124 117 108 100 95 83 74 65 58 54 48 43 37 33 30 27 25 20 15 12 9 8 8 8 7 5 3 1 357 354 351 349 346 344 343 340 337 334 331 328 324 316 300 283 278 276 272 266 261 258 251 246 240
207 218 169 183 188 166 174 199 191 186 207 228 212 187 195 213 194 191 199 196 201 196 167 173 187 194 181 163 169 165 155 158 148 126 123 113 105 101 86 75 64 55 50 45 40 35 33 29 25 23 18 13 13 10 8 9 10 10 7 5 1 357 353 352 351 349 344 342 340 337 333 328 321 315 311 307 293 280 275 273 270 268 266 262 256 246
196 227 181 162 169 174 182 198 201 186 183 199 207 193 194 204 190 182 191 216 216 200 178 179 192 186 131 143 170 162 157 161 143 128 130 116 103 93 79 72 62 55 52 46 39 35 30 22 19 20 19 17 16 14 12 11 11 10 8 6 2 356 354 352 350 349 347 344 341 338 335 329 321 314 308 306 304 295 286 279 275 275 275 270 262 251
195 213 188 164 175 190 183 173 205 200 189 191 199 199 194 193 188 182 181 201 217 208 190 191 191 154 83 74 140 141 144 146 131 127 127 113 104 95 81 74 66 60 56 50 43 38 31 21 17 22 24 22 19 17 15 11 10 9 8 6 2 357 354 351 348 348 346 343 342 340 336 331 325 321 315 311 308 303 297 289 281 276 275 271 264 254
210 212 187 174 179 173 130 82 30 274 204 202 205 201 193 191 198 198 187 183 197 202 189 204 201 137 82 81 105 110 115 121 122 122 118 112 104 97 88 78 72 66 60 54 47 41 36 30 28 27 26 23 20 16 13 10 9 9 7 4 1 357 354 350 348 346 344 342 341 340 337 335 332 328 324 318 312 306 301 293 285 279 274 272 269 261
201 203 181 170 162 128 96 89 110 157 201 209 202 198 198 197 202 211 195 175 184 190 186 204 199 142 100 97 104 107 109 111 114 114 113 112 105 97 90 80 75 70 63 58 53 46 40 36 32 28 24 21 17 12 9 8 8 9 7 2 360 358 354 351 348 347 346 343 341 341 339 338 335 333 329 323 314 306 299 293 287 281 277 274 270 265
192 194 181 175 168 160 160 163 165 177 197 203 178 168 228 204 192 193 176 179 192 194 196 208 190 133 123 121 113 110 111 108 107 109 109 111 108 100 92 82 74 70 64 60 55 49 43 38 32 27 23 19 15 12 10 9 8 9 8 5 2 358 354 352 351 349 347 343 341 342 342 340 338 334 330 325 319 310 301 295 287 280 276 271 266 263
169 163 204 197 187 184 184 181 179 177 179 173 139 138 79 210 193 185 178 197 200 184 200 221 151 117 128 133 124 115 115 111 107 107 104 107 108 102 94 84 75 71 65 58 53 48 45 40 32 27 25 20 16 13 10 9 9 9 8 6 3 358 354 352 352 351 348 345 343 342 343 343 340 336 332 328 323 317 308 300 291 284 278 271 266 264
117 50 26 57 171 175 162 134 96 167 161 149 136 141 125 70 212 210 205 210 186 171 197 177 128 136 145 143 134 125 120 115 114 114 112 111 107 99 93 87 80 75 66 59 54 51 48 40 33 30 26 20 14 11 8 6 3 2 4 5 1 358 355 353 353 352 351 349 347 345 345 344 341 337 336 332 328 323 315 307 298 291 286 279 274 270
125 87 45 54 75 79 72 69 72 111 123 122 119 119 113 80 350 212 200 201 171 179 188 120 126 140 150 146 137 129 123 117 116 116 114 113 106 100 97 92 86 78 70 66 58 53 51 41 33 29 22 16 11 9 8 7 2 2 5 6 5 3 0 357 356 355 354 353 353 351 347 345 343 340 338 336 335 332 327 321 313 304 294 286 282 277
116 99 85 87 88 82 74 77 88 96 93 87 84 82 79 72 78 101 87 31 25 175 144 124 126 131 137 137 128 121 119 114 112 111 111 110 105 103 101 94 87 77 69 65 57 53 52 44 35 23 14 13 11 10 10 7 4 5 4 4 6 6 4 3 2 2 1 359 357 354 350 347 346 345 343 343 342 342 339 336 333 328 318 306 297 290
87 101 127 116 100 94 93 88 91 99 96 82 69 65 69 72 75 79 74 68 76 85 100 115 115 110 116 120 111 110 111 110 111 109 104 103 100 99 95 86 80 74 67 62 58 57 52 46 38 23 14 13 10 9 9 6 4 3 2 2 3 2 1 3 5 5 4 2 359 355 352 350 349 349 349 349 348 347 345 343 342 339 334 327 319 312
90 134 148 129 99 95 103 103 101 100 95 83 69 60 66 71 67 68 71 72 79 91 105 110 106 100 104 110 109 112 113 111 110 102 96 97 97 93 87 78 72 68 62 57 57 57 50 41 35 25 20 16 11 9 8 5 3 2 1 0 359 359 359 2 5 5 5 3 360 357 356 354 353 353 354 354 352 351 350 348 346 341 337 334 328 323
120 142 171 165 107 101 121 122 115 108 98 85 66 51 55 68 68 62 59 60 98 121 125 118 114 118 123 119 114 113 112 110 104 97 94 95 91 85 82 78 71 64 59 54 53 53 48 39 32 25 21 17 13 10 6 4 2 1 1 360 358 359 2 5 6 3 4 3 0 359 359 358 357 357 358 359 358 356 354 352 350 347 343 340 337 333
132 141 176 182 119 120 147 137 128 135 123 92 51 27 41 79 93 83 68 71 101 132 138 127 125 130 130 127 118 112 109 104 98 95 97 99 93 84 83 81 73 67 62 55 51 47 40 34 28 22 18 17 14 11 7 4 3 1 1 0 0 3 7 9 8 4 4 4 2 1 0 359 0 360 360 1 2 0 359 358 356 353 347 343 342 343
142 146 162 166 127 143 159 157 177 190 157 104 14 335 21 86 101 94 77 71 76 89 94 102 118 126 127 124 118 113 108 101 97 95 95 98 96 88 85 81 73 68 62 53 48 43 36 31 26 20 17 16 14 13 11 9 8 6 4 4 5 7 9 10 10 8 7 5 4 2 0 360 2 3 2 3 3 4 4 2 359 355 352 349 347 348
146 145 134 123 123 139 157 176 188 176 139 68 38 72 85 98 103 93 77 68 77 95 103 108 117 121 117 114 112 111 108 103 98 92 86 86 88 88 86 78 70 66 61 56 50 44 39 33 26 20 17 14 12 12 12 11 10 9 9 10 10 10 10 10 9 10 8 6 5 3 1 1 2 4 6 6 6 7 7 5 2 359 356 354 354 355
153 143 115 106 117 135 156 184 173 134 100 92 102 104 112 119 116 98 73 59 77 106 114 113 114 115 115 114 112 111 109 103 94 84 80 78 77 80 81 74 69 66 64 61 54 47 44 37 29 24 18 14 12 11 10 9 8 9 10 11 11 11 11 10 10 10 10 8 7 5 4 3 3 5 7 8 9 11 10 8 7 3 360 358 1 5
160 150 122 107 117 147 129 97 102 128 139 140 143 148 139 130 119 103 86 65 75 108 118 119 120 121 121 121 120 122 120 107 91 77 74 80 82 82 81 79 77 73 69 67 61 56 51 44 38 33 26 22 18 14 11 8 6 8 9 9 9 9 9 9 10 10 10 10 9 8 7 6 6 7 9 10 12 12 12 11 10 8 6 6 8 13
132 151 142 127 139 163 126 106 130 162 178 176 167 166 155 145 121 116 110 93 91 117 126 127 128 128 129 129 132 142 140 110 87 84 92 96 94 91 88 84 79 75 72 69 65 60 54 48 44 39 34 32 27 23 19 15 13 13 14 14 13 12 12 12 11 10 11 11 10 9 9 9 10 10 11 13 14 13 13 14 13 12 11 12 14 18
83 85 137 134 141 165 160 152 155 152 120 142 154 154 152 159 165 156 140 120 125 135 135 132 132 133 137 138 142 158 165 128 110 126 130 117 106 100 96 90 83 78 74 70 64 59 55 51 47 43 39 37 34 30 29 27 26 25 23 22 20 19 18 16 13 13 12 13 12 12 11 12 13 15 16 17 18 16 16 15 14 15 16 15 15 14
90 94 136 143 145 162 173 156 125 92 68 130 146 149 145 147 180 202 200 155 144 147 143 138 137 136 140 145 148 162 162 134 136 142 136 126 115 105 100 94 87 80 74 71 67 63 59 53 48 45 42 38 36 35 34 35 35 33 30 28 25 24 22 18 16 16 15 16 16 16 17 17 18 21 22 23 24 23 22 18 16 20 23 22 18 15
81 74 98 143 144 148 155 137 106 81 112 139 141 138 141 162 198 216 183 132 141 146 142 138 137 135 138 144 141 101 78 107 126 132 131 127 118 111 108 101 92 83 76 72 66 63 61 55 50 47 44 39 37 36 35 36 36 35 32 30 28 26 23 20 19 19 20 22 22 22 22 23 23 24 24 25 26 26 26 24 22 25 29 28 24 21
97 94 107 127 134 139 143 134 118 107 134 155 146 138 156 200 190 118 109 127 137 138 136 135 131 128 127 122 117 110 105 112 122 127 128 125 120 118 115 107 95 86 79 73 65 60 59 57 53 49 45 41 38 37 36 35 36 34 31 30 28 25 23 22 23 23 24 26 28 27 25 23 22 22 19 19 20 22 24 25 23 24 27 28 29 27
45 145 138 109 82 138 146 144 137 125 144 164 160 150 169 304 109 117 123 127 129 130 133 131 123 121 121 114 113 116 117 119 123 125 125 125 121 117 112 104 95 87 81 73 65 61 59 57 54 49 45 41 39 38 38 37 36 33 31 30 27 24 24 25 26 27 29 29 30 30 26 25 28 29 22 18 21 22 23 25 23 23 23 24 28 31
357 308 149 113 352 225 155 134 93 103 130 150 156 123 99 99 121 132 130 126 128 133 133 127 120 122 121 118 119 120 120 122 124 124 124 123 119 116 110 103 95 87 82 74 66 62 59 56 53 48 44 41 38 38 38 36 35 32 31 29 25 23 25 26 26 29 31 32 33 31 28 28 32 34 28 22 24 26 26 25 24 23 24 23 24 28
30 19 71 74 49 49 73 88 98 100 106 107 88 93 108 114 122 131 131 131 136 138 132 126 126 125 123 123 124 123 123 126 126 125 124 121 120 119 113 106 98 89 83 76 66 61 60 57 54 49 45 41 38 38 36 33 32 31 29 26 23 22 24 26 27 29 30 32 34 32 30 30 30 30 27 24 25 27 26 24 24 21 21 23 23 24
84 75 68 91 105 90 65 73 96 96 94 95 94 100 110 114 118 125 130 132 132 130 129 129 128 129 130 130 127 124 125 126 124 123 124 123 122 120 113 106 99 88 81 75 67 62 60 59 56 51 47 43 39 37 35 31 30 29 27 24 22 23 24 25 28 31 30 30 31 31 30 31 30 29 29 27 27 28 28 27 28 24 21 21 22 23
113 120 108 124 142 137 81 80 93 97 102 106 105 105 109 113 119 123 125 126 125 124 126 127 128 130 131 128 125 124 126 127 126 125 125 123 120 117 112 107 100 90 83 75 67 65 61 58 56 51 47 44 40 37 35 31 29 29 26 23 22 24 27 27 28 31 31 30 30 29 29 30 30 31 33 33 31 32 32 32 32 30 27 22 21 22
137 146 130 118 122 113 103 110 108 100 106 113 113 115 117 117 119 118 117 121 124 123 124 126 128 128 127 126 127 126 126 127 126 124 122 120 117 114 110 106 101 94 87 78 69 66 63 57 54 50 47 45 41 38 36 33 30 29 28 25 24 25 28 29 29 30 31 31 31 31 30 30 30 30 34 37 37 37 36 35 35 36 33 28 26 27
138 150 135 113 108 101 106 126 122 104 102 111 115 119 123 123 122 120 119 122 124 123 122 124 126 126 126 126 126 124 122 121 119 119 119 117 116 113 110 109 104 95 90 83 73 68 64 59 54 51 48 46 42 39 37 34 32 33 30 27 26 27 28 30 31 32 32 32 31 31 32 33 33 32 33 36 41 46 45 40 38 40 39 35 34 37
150 147 129 124 132 136 146 156 148 125 119 128 125 125 129 129 125 124 124 126 125 124 125 126 124 122 121 121 122 121 118 115 115 115 113 109 108 109 110 112 108 96 87 82 76 73 68 61 56 53 50 48 45 42 40 36 34 35 32 29 29 29 29 31 33 33 34 34 31 28 28 32 33 33 33 33 36 46 53 48 42 40 40 39 39 41
153 148 141 143 150 150 154 159 154 128 124 132 131 130 132 132 128 127 127 126 124 125 128 127 124 121 119 118 119 118 115 114 114 111 106 103 104 106 104 102 99 91 81 75 75 78 72 64 59 55 51 49 46 43 42 38 35 35 34 32 32 33 32 33 34 32 32 34 31 24 24 29 31 31 32 33 33 35 44 51 48 43 40 40 41 44